| time (UTC) | temp F | wind direction | speed MPH | gust MPH | rain 1hr in | rain 24hr in | rain mn in | humidity % | barometer mb |
| 20260906145039 | 55 | 319 | 0.0 | 0.0 | 0.00 | 0.03 | 0.03 | 93 | 1014.0 |
| 20260906144539 | 55 | 319 | 0.0 | 0.0 | 0.00 | 0.03 | 0.03 | 94 | 1014.0 |
| 20260906144043 | 55 | 319 | 0.0 | 0.0 | 0.00 | 0.03 | 0.03 | 93 | 1013.9 |
| 20260906143544 | 55 | 319 | 0.0 | 3.0 | 0.00 | 0.03 | 0.03 | 93 | 1013.9 |
| 20260906143045 | 55 | 319 | 0.0 | 3.0 | 0.00 | 0.03 | 0.03 | 93 | 1013.9 |
| 20260906142536 | 54 | 134 | 0.0 | 0.0 | 0.00 | 0.03 | 0.03 | 93 | 1013.9 |
| 20260906142036 | 55 | 134 | 0.0 | 2.0 | 0.00 | 0.03 | 0.03 | 93 | 1013.6 |
| 20260906141535 | 55 | 134 | 0.0 | 2.0 | 0.00 | 0.03 | 0.03 | 93 | 1013.6 |
| 20260906141035 | 55 | 141 | 0.0 | 0.0 | 0.00 | 0.03 | 0.03 | 93 | 1013.5 |
| 20260906140536 | 55 | 141 | 0.0 | 0.0 | 0.00 | 0.03 | 0.03 | 93 | 1013.5 |
| 20260906140038 | 55 | 141 | 0.0 | 0.0 | 0.00 | 0.03 | 0.03 | 93 | 1013.5 |
| 20260906135535 | 55 | 141 | 0.0 | 0.0 | 0.00 | 0.03 | 0.03 | 93 | 1013.5 |
| 20260906135034 | 54 | 141 | 0.0 | 0.0 | 0.00 | 0.03 | 0.03 | 92 | 1013.4 |
| 20260906134537 | 54 | 143 | 0.0 | 0.0 | 0.01 | 0.03 | 0.03 | 92 | 1013.4 |
| 20260906134033 | 54 | 142 | 0.0 | 0.0 | 0.01 | 0.03 | 0.03 | 92 | 1013.6 |
| 20260906133531 | 55 | 142 | 0.0 | 0.0 | 0.01 | 0.03 | 0.03 | 92 | 1013.3 |
| 20260906133031 | 55 | 136 | 0.0 | 0.0 | 0.01 | 0.03 | 0.03 | 92 | 1013.1 |
| 20260906132531 | 55 | 136 | 0.0 | 0.0 | 0.01 | 0.03 | 0.03 | 92 | 1013.0 |
| 20260906132030 | 55 | 136 | 0.0 | 0.0 | 0.01 | 0.03 | 0.03 | 92 | 1013.0 |
| 20260906131530 | 55 | 135 | 0.0 | 0.0 | 0.01 | 0.03 | 0.03 | 91 | 1012.9 |
| 20260906131029 | 55 | 136 | 0.0 | 0.0 | 0.01 | 0.03 | 0.03 | 91 | 1013.0 |
| 20260906130533 | 55 | 135 | 0.0 | 0.0 | 0.01 | 0.03 | 0.03 | 91 | 1013.0 |
| 20260906130030 | 55 | 136 | 0.0 | 1.0 | 0.01 | 0.03 | 0.03 | 91 | 1012.8 |
| 20260906125529 | 55 | 137 | 0.0 | 1.0 | 0.01 | 0.03 | 0.03 | 91 | 1012.8 |
| 20260906125032 | 55 | 141 | 0.0 | 0.0 | 0.01 | 0.03 | 0.03 | 92 | 1012.7 |
| 20260906124528 | 55 | 143 | 0.0 | 0.0 | 0.00 | 0.02 | 0.02 | 92 | 1012.8 |
| 20260906124028 | 55 | 143 | 0.0 | 0.0 | 0.00 | 0.02 | 0.02 | 92 | 1013.0 |
| 20260906123527 | 55 | 143 | 0.0 | 0.0 | 0.00 | 0.02 | 0.02 | 92 | 1013.2 |
| 20260906123027 | 55 | 143 | 0.0 | 0.0 | 0.00 | 0.02 | 0.02 | 91 | 1012.8 |
| 20260906122526 | 55 | 143 | 0.0 | 0.0 | 0.00 | 0.02 | 0.02 | 91 | 1012.6 |
| 20260906122025 | 55 | 143 | 0.0 | 0.0 | 0.00 | 0.02 | 0.02 | 91 | 1012.7 |
| 20260906121525 | 55 | 143 | 0.0 | 0.0 | 0.01 | 0.02 | 0.02 | 92 | 1012.6 |
| 20260906121026 | 55 | 143 | 0.0 | 0.0 | 0.01 | 0.02 | 0.02 | 91 | 1012.6 |
| 20260906120526 | 55 | 143 | 0.0 | 0.0 | 0.01 | 0.02 | 0.02 | 91 | 1012.6 |
| 20260906120024 | 55 | 143 | 0.0 | 0.0 | 0.01 | 0.02 | 0.02 | 91 | 1012.8 |
| 20260906115523 | 55 | 143 | 0.0 | 0.0 | 0.01 | 0.02 | 0.02 | 91 | 1012.8 |
| 20260906115024 | 55 | 143 | 0.0 | 1.0 | 0.02 | 0.02 | 0.02 | 91 | 1012.7 |
| 20260906114522 | 55 | 143 | 0.0 | 1.0 | 0.02 | 0.02 | 0.02 | 90 | 1012.6 |
| 20260906114022 | 55 | 143 | 0.0 | 1.0 | 0.02 | 0.02 | 0.02 | 90 | 1012.6 |
| 20260906113521 | 55 | 141 | 0.0 | 1.0 | 0.02 | 0.02 | 0.02 | 90 | 1012.4 |
| 20260906113021 | 55 | 141 | 0.0 | 1.0 | 0.02 | 0.02 | 0.02 | 90 | 1012.4 |
| 20260906112520 | 55 | 141 | 0.0 | 1.0 | 0.02 | 0.02 | 0.02 | 89 | 1012.4 |
| 20260906112020 | 55 | 141 | 0.0 | 1.0 | 0.02 | 0.02 | 0.02 | 89 | 1012.2 |
| 20260906111519 | 55 | 136 | 0.0 | 2.0 | 0.01 | 0.01 | 0.01 | 88 | 1012.5 |
| 20260906111020 | 55 | 135 | 0.0 | 2.0 | 0.01 | 0.01 | 0.01 | 88 | 1012.7 |
| 20260906110518 | 55 | 142 | 0.0 | 0.0 | 0.01 | 0.01 | 0.01 | 87 | 1012.2 |
| 20260906110018 | 55 | 143 | 0.0 | 1.0 | 0.01 | 0.01 | 0.01 | 87 | 1012.0 |
| 20260906105517 | 55 | 138 | 0.0 | 1.0 | 0.01 | 0.01 | 0.01 | 86 | 1012.1 |
| 20260906105019 | 55 | 138 | 0.0 | 0.0 | 0.00 | 0.00 | 0.00 | 87 | 1011.8 |
| 20260906104516 | 55 | 138 | 0.0 | 1.0 | 0.00 | 0.00 | 0.00 | 86 | 1012.4 |
| 20260906104016 | 55 | 138 | 0.0 | 2.0 | 0.00 | 0.00 | 0.00 | 86 | 1012.2 |
| 20260906103514 | 55 | 138 | 0.0 | 2.0 | 0.00 | 0.00 | 0.00 | 85 | 1011.7 |
| 20260906103013 | 55 | 132 | 0.0 | 0.0 | 0.00 | 0.00 | 0.00 | 84 | 1011.5 |
| 20260906102514 | 56 | 133 | 0.0 | 0.0 | 0.00 | 0.00 | 0.00 | 83 | 1011.5 |
| 20260906102013 | 56 | 132 | 0.0 | 0.0 | 0.00 | 0.00 | 0.00 | 83 | 1011.7 |
| 20260906101513 | 56 | 132 | 0.0 | 0.0 | 0.00 | 0.00 | 0.00 | 81 | 1011.8 |
| 20260906101012 | 55 | 132 | 0.0 | 0.0 | 0.00 | 0.00 | 0.00 | 82 | 1011.9 |
| 20260906100512 | 56 | 132 | 0.0 | 0.0 | 0.00 | 0.00 | 0.00 | 82 | 1012.1 |
| 20260906100012 | 56 | 132 | 0.0 | 0.0 | 0.00 | 0.00 | 0.00 | 82 | 1012.1 |
| 20260906095511 | 56 | 132 | 0.0 | 0.0 | 0.00 | 0.00 | 0.00 | 82 | 1012.1 |
| 20260906095010 | 56 | 132 | 0.0 | 0.0 | 0.00 | 0.00 | 0.00 | 81 | 1012.2 |
| 20260906094515 | 56 | 132 | 0.0 | 0.0 | 0.00 | 0.00 | 0.00 | 82 | 1012.2 |
| 20260906094009 | 55 | 132 | 0.0 | 0.0 | 0.00 | 0.00 | 0.00 | 82 | 1012.2 |
| 20260906093510 | 55 | 133 | 0.0 | 0.0 | 0.00 | 0.00 | 0.00 | 82 | 1012.2 |
| 20260906093012 | 55 | 132 | 0.0 | 0.0 | 0.00 | 0.00 | 0.00 | 82 | 1012.2 |
| 20260906092512 | 56 | 133 | 0.0 | 0.0 | 0.00 | 0.00 | 0.00 | 81 | 1012.0 |
| 20260906092011 | 57 | 134 | 0.0 | 0.0 | 0.00 | 0.00 | 0.00 | 79 | 1012.0 |
| 20260906091507 | 57 | 134 | 0.0 | 1.0 | 0.00 | 0.00 | 0.00 | 78 | 1012.0 |
| 20260906091007 | 57 | 131 | 0.0 | 1.0 | 0.00 | 0.00 | 0.00 | 77 | 1011.9 |
| 20260906090510 | 57 | 154 | 0.0 | 1.0 | 0.00 | 0.00 | 0.00 | 77 | 1011.8 |
| 20260906090007 | 57 | 154 | 0.0 | 1.0 | 0.00 | 0.00 | 0.00 | 78 | 1011.9 |
| 20260906085506 | 56 | 162 | 0.0 | 1.0 | 0.00 | 0.00 | 0.00 | 80 | 1011.9 |
| 20260906085006 | 55 | 147 | 0.0 | 1.0 | 0.00 | 0.00 | 0.00 | 84 | 1011.8 |
| 20260906084509 | 56 | 127 | 0.0 | 1.0 | 0.00 | 0.00 | 0.00 | 85 | 1011.7 |
| 20260906084007 | 56 | 141 | 0.0 | 0.0 | 0.00 | 0.00 | 0.00 | 85 | 1011.7 |
| 20260906083504 | 56 | 141 | 0.0 | 1.0 | 0.00 | 0.00 | 0.00 | 85 | 1011.8 |
| 20260906083004 | 56 | 141 | 0.0 | 1.0 | 0.00 | 0.00 | 0.00 | 84 | 1011.9 |
| 20260906082505 | 56 | 141 | 0.0 | 1.0 | 0.00 | 0.00 | 0.00 | 84 | 1011.8 |
| 20260906082003 | 56 | 141 | 0.0 | 1.0 | 0.00 | 0.00 | 0.00 | 84 | 1011.5 |
| 20260906081500 | 56 | 141 | 0.0 | 1.0 | 0.00 | 0.00 | 0.00 | 83 | 1011.6 |
| 20260906081101 | 56 | 141 | 0.0 | 1.0 | 0.00 | 0.00 | 0.00 | 82 | 1011.6 |
| 20260906080559 | 57 | 141 | 0.0 | 1.0 | 0.00 | 0.00 | 0.00 | 82 | 1011.5 |
| 20260906080100 | 57 | 141 | 0.0 | 1.0 | 0.00 | 0.00 | 0.00 | 82 | 1011.5 |
| 20260906075556 | 57 | 124 | 0.0 | 1.0 | 0.00 | 0.00 | 0.00 | 80 | 1011.5 |
| 20260906075056 | 57 | 108 | 0.0 | 1.0 | 0.00 | 0.00 | 0.00 | 80 | 1011.5 |
| 20260906074559 | 57 | 134 | 0.0 | 0.0 | 0.00 | 0.00 | 0.00 | 80 | 1011.6 |
| 20260906074053 | 58 | 134 | 0.0 | 1.0 | 0.00 | 0.00 | 0.00 | 80 | 1011.8 |
| 20260906073557 | 58 | 134 | 0.0 | 1.0 | 0.00 | 0.00 | 0.00 | 79 | 1011.8 |
| 20260906073051 | 58 | 103 | 0.0 | 1.0 | 0.00 | 0.00 | 0.00 | 78 | 1011.7 |
| 20260906072552 | 58 | 106 | 0.0 | 0.0 | 0.00 | 0.00 | 0.00 | 78 | 1011.8 |
| 20260906072050 | 58 | 105 | 0.0 | 0.0 | 0.00 | 0.00 | 0.00 | 78 | 1011.8 |
| 20260906071550 | 58 | 105 | 0.0 | 0.0 | 0.00 | 0.00 | 0.00 | 78 | 1011.8 |
| 20260906071047 | 58 | 105 | 0.0 | 1.0 | 0.00 | 0.00 | 0.00 | 79 | 1012.0 |
| 20260906070546 | 59 | 106 | 0.0 | 1.0 | 0.00 | 0.00 | 0.00 | 77 | 1011.9 |
| 20260906070045 | 59 | 105 | 0.0 | 0.0 | 0.00 | 0.00 | 0.00 | 76 | 1012.0 |
| 20260906065544 | 59 | 105 | 0.0 | 0.0 | 0.00 | 0.02 | 0.00 | 76 | 1012.1 |
| 20260906065043 | 60 | 105 | 0.0 | 0.0 | 0.00 | 0.02 | 0.00 | 75 | 1012.2 |
| 20260906064541 | 60 | 106 | 0.0 | 1.0 | 0.00 | 0.02 | 0.00 | 73 | 1012.3 |
| 20260906064040 | 60 | 106 | 0.0 | 1.0 | 0.00 | 0.02 | 0.00 | 72 | 1012.5 |
| 20260906063538 | 61 | 330 | 0.0 | 2.0 | 0.00 | 0.02 | 0.00 | 71 | 1012.6 |
| 20260906063038 | 61 | 330 | 0.0 | 2.0 | 0.00 | 0.02 | 0.00 | 70 | 1012.2 |
| 20260906062537 | 61 | 330 | 0.0 | 0.0 | 0.00 | 0.02 | 0.00 | 70 | 1012.1 |
| 20260906062039 | 62 | 330 | 0.0 | 1.0 | 0.00 | 0.02 | 0.00 | 70 | 1012.1 |
| 20260906061539 | 62 | 330 | 0.0 | 1.0 | 0.00 | 0.02 | 0.00 | 69 | 1012.5 |
| 20260906061039 | 62 | 330 | 0.0 | 3.0 | 0.00 | 0.02 | 0.00 | 68 | 1012.6 |
| 20260906060535 | 62 | 330 | 0.0 | 3.0 | 0.00 | 0.02 | 0.00 | 69 | 1012.4 |
| 20260906060036 | 62 | 128 | 0.0 | 1.0 | 0.00 | 0.02 | 0.00 | 69 | 1012.2 |
| 20260906055532 | 62 | 134 | 0.0 | 0.0 | 0.00 | 0.02 | 0.02 | 70 | 1012.2 |
| 20260906055034 | 62 | 134 | 0.0 | 2.0 | 0.00 | 0.02 | 0.02 | 71 | 1012.5 |
| 20260906054531 | 62 | 134 | 0.0 | 2.0 | 0.00 | 0.02 | 0.02 | 72 | 1012.3 |
| 20260906054031 | 61 | 120 | 0.0 | 2.0 | 0.00 | 0.02 | 0.02 | 72 | 1012.5 |
| 20260906053530 | 61 | 148 | 0.0 | 2.0 | 0.00 | 0.02 | 0.02 | 73 | 1013.0 |
| 20260906053030 | 62 | 148 | 0.0 | 1.0 | 0.00 | 0.02 | 0.02 | 73 | 1013.2 |
| 20260906052533 | 61 | 122 | 0.0 | 1.0 | 0.00 | 0.02 | 0.02 | 74 | 1013.2 |
| 20260906052030 | 61 | 127 | 0.0 | 2.0 | 0.00 | 0.02 | 0.02 | 73 | 1013.9 |
| 20260906051529 | 62 | 127 | 0.0 | 2.0 | 0.00 | 0.02 | 0.02 | 74 | 1013.9 |
| 20260906051029 | 61 | 138 | 0.0 | 2.0 | 0.00 | 0.02 | 0.02 | 71 | 1013.2 |
| 20260906050528 | 61 | 150 | 0.0 | 0.0 | 0.00 | 0.02 | 0.02 | 74 | 1013.0 |
| 20260906050028 | 61 | 150 | 0.0 | 0.0 | 0.00 | 0.02 | 0.02 | 76 | 1013.5 |
| 20260906045532 | 61 | 150 | 0.0 | 1.0 | 0.00 | 0.02 | 0.02 | 76 | 1013.4 |
| 20260906045028 | 61 | 153 | 0.0 | 1.0 | 0.00 | 0.02 | 0.02 | 75 | 1013.1 |
| 20260906044532 | 61 | 153 | 0.0 | 1.0 | 0.00 | 0.02 | 0.02 | 75 | 1013.1 |
| 20260906044032 | 61 | 150 | 0.0 | 1.0 | 0.00 | 0.02 | 0.02 | 75 | 1012.9 |
| 20260906043528 | 61 | 152 | 0.0 | 0.0 | 0.00 | 0.02 | 0.02 | 75 | 1012.8 |
| 20260906043027 | 61 | 151 | 0.0 | 0.0 | 0.00 | 0.02 | 0.02 | 75 | 1012.7 |
| 20260906042526 | 61 | 150 | 0.0 | 0.0 | 0.00 | 0.02 | 0.02 | 76 | 1012.8 |
| 20260906042026 | 61 | 150 | 0.0 | 0.0 | 0.00 | 0.02 | 0.02 | 76 | 1012.8 |
| 20260906041538 | 61 | 151 | 0.0 | 0.0 | 0.00 | 0.02 | 0.02 | 75 | 1012.7 |
| 20260906041028 | 61 | 151 | 0.0 | 1.0 | 0.00 | 0.02 | 0.02 | 75 | 1012.7 |
| 20260906040527 | 61 | 150 | 0.0 | 1.0 | 0.00 | 0.02 | 0.02 | 75 | 1012.8 |
| 20260906040026 | 61 | 151 | 0.0 | 0.0 | 0.00 | 0.02 | 0.02 | 74 | 1012.8 |
| 20260906035525 | 61 | 150 | 0.0 | 0.0 | 0.00 | 0.02 | 0.02 | 74 | 1012.9 |
| 20260906035025 | 62 | 151 | 0.0 | 0.0 | 0.00 | 0.02 | 0.02 | 73 | 1013.0 |
| 20260906034530 | 62 | 150 | 0.0 | 0.0 | 0.00 | 0.02 | 0.02 | 72 | 1012.9 |
| 20260906034024 | 62 | 151 | 0.0 | 0.0 | 0.00 | 0.02 | 0.02 | 70 | 1012.8 |
| 20260906033524 | 63 | 151 | 0.0 | 0.0 | 0.00 | 0.02 | 0.02 | 71 | 1012.8 |
| 20260906033025 | 63 | 151 | 0.0 | 0.0 | 0.00 | 0.02 | 0.02 | 70 | 1012.8 |
| 20260906032523 | 63 | 150 | 0.0 | 0.0 | 0.00 | 0.02 | 0.02 | 70 | 1012.8 |
| 20260906032023 | 64 | 152 | 0.0 | 0.0 | 0.00 | 0.02 | 0.02 | 70 | 1012.8 |
| 20260906031524 | 64 | 152 | 0.0 | 0.0 | 0.00 | 0.02 | 0.02 | 68 | 1012.8 |
| 20260906031023 | 64 | 150 | 0.0 | 1.0 | 0.00 | 0.02 | 0.02 | 67 | 1012.7 |
| 20260906030523 | 65 | 152 | 0.0 | 1.0 | 0.00 | 0.02 | 0.02 | 67 | 1012.6 |
| 20260906030023 | 65 | 150 | 0.0 | 1.0 | 0.00 | 0.02 | 0.02 | 65 | 1012.5 |
| 20260906025522 | 66 | 154 | 0.0 | 1.0 | 0.00 | 0.02 | 0.02 | 63 | 1012.6 |
| 20260906025022 | 66 | 154 | 0.0 | 1.0 | 0.00 | 0.02 | 0.02 | 61 | 1012.6 |
| 20260906024522 | 67 | 154 | 0.0 | 2.0 | 0.00 | 0.02 | 0.02 | 60 | 1012.4 |
| 20260906024022 | 68 | 154 | 0.0 | 2.0 | 0.00 | 0.02 | 0.02 | 59 | 1012.4 |
| 20260906023523 | 69 | 207 | 0.0 | 1.0 | 0.00 | 0.02 | 0.02 | 58 | 1012.3 |
| 20260906023022 | 70 | 308 | 0.0 | 2.0 | 0.00 | 0.02 | 0.02 | 55 | 1012.2 |
| 20260906022520 | 70 | 319 | 0.0 | 3.0 | 0.00 | 0.02 | 0.02 | 51 | 1012.3 |
| 20260906022025 | 71 | 319 | 1.0 | 3.0 | 0.00 | 0.02 | 0.02 | 50 | 1012.3 |
| 20260906021520 | 71 | 318 | 1.0 | 3.0 | 0.00 | 0.02 | 0.02 | 49 | 1012.3 |
| 20260906021019 | 71 | 320 | 1.0 | 3.0 | 0.00 | 0.02 | 0.02 | 48 | 1012.4 |
| 20260906020519 | 71 | 326 | 1.0 | 4.0 | 0.00 | 0.02 | 0.02 | 48 | 1012.4 |
| 20260906020020 | 72 | 319 | 1.0 | 4.0 | 0.00 | 0.02 | 0.02 | 47 | 1012.5 |
| 20260906015518 | 72 | 323 | 1.0 | 4.0 | 0.00 | 0.02 | 0.02 | 45 | 1012.5 |
| 20260906015018 | 73 | 323 | 1.0 | 4.0 | 0.00 | 0.02 | 0.02 | 45 | 1012.4 |
| 20260906014522 | 73 | 322 | 1.0 | 5.0 | 0.00 | 0.02 | 0.02 | 44 | 1012.5 |
| 20260906014018 | 73 | 318 | 1.0 | 6.0 | 0.00 | 0.02 | 0.02 | 43 | 1012.5 |
| 20260906013518 | 73 | 316 | 2.0 | 7.0 | 0.00 | 0.02 | 0.02 | 43 | 1012.6 |
| 20260906013017 | 74 | 315 | 2.0 | 7.0 | 0.00 | 0.02 | 0.02 | 42 | 1012.6 |
| 20260906012516 | 74 | 316 | 2.0 | 6.0 | 0.00 | 0.02 | 0.02 | 42 | 1012.6 |
| 20260906012016 | 74 | 324 | 2.0 | 5.0 | 0.00 | 0.02 | 0.02 | 42 | 1012.6 |
| 20260906011516 | 74 | 307 | 1.0 | 7.0 | 0.00 | 0.02 | 0.02 | 42 | 1012.6 |
| 20260906011016 | 74 | 322 | 2.0 | 7.0 | 0.00 | 0.02 | 0.02 | 41 | 1012.6 |
| 20260906010516 | 74 | 327 | 1.0 | 7.0 | 0.00 | 0.02 | 0.02 | 41 | 1012.6 |
| 20260906010016 | 74 | 322 | 3.0 | 7.0 | 0.00 | 0.02 | 0.02 | 40 | 1012.7 |
| 20260906005516 | 75 | 304 | 1.0 | 9.0 | 0.00 | 0.02 | 0.02 | 40 | 1012.7 |
| 20260906005017 | 75 | 311 | 2.0 | 9.0 | 0.00 | 0.02 | 0.02 | 40 | 1012.7 |
| 20260906004516 | 75 | 322 | 2.0 | 6.0 | 0.00 | 0.02 | 0.02 | 40 | 1012.7 |
| 20260906004015 | 75 | 320 | 3.0 | 6.0 | 0.00 | 0.02 | 0.02 | 40 | 1012.7 |
| 20260906003515 | 75 | 316 | 2.0 | 6.0 | 0.00 | 0.02 | 0.02 | 40 | 1012.7 |
| 20260906003014 | 75 | 323 | 2.0 | 6.0 | 0.00 | 0.02 | 0.02 | 40 | 1012.7 |
| 20260906002514 | 75 | 311 | 3.0 | 6.0 | 0.00 | 0.02 | 0.02 | 39 | 1012.6 |
| 20260906002015 | 76 | 340 | 3.0 | 6.0 | 0.00 | 0.02 | 0.02 | 39 | 1012.6 |
| 20260906001514 | 76 | 328 | 1.0 | 6.0 | 0.00 | 0.02 | 0.02 | 39 | 1012.6 |
| 20260906001013 | 76 | 329 | 2.0 | 7.0 | 0.00 | 0.02 | 0.02 | 39 | 1012.6 |
| 20260906000516 | 76 | 332 | 3.0 | 7.0 | 0.00 | 0.02 | 0.02 | 39 | 1012.7 |
| 20260906000013 | 76 | 5 | 1.0 | 7.0 | 0.00 | 0.02 | 0.02 | 39 | 1012.7 |
| 20260905235513 | 76 | 130 | 1.0 | 7.0 | 0.00 | 0.02 | 0.02 | 38 | 1012.7 |
| 20260905235012 | 76 | 307 | 3.0 | 6.0 | 0.00 | 0.02 | 0.02 | 38 | 1012.7 |
| 20260905234513 | 76 | 322 | 2.0 | 8.0 | 0.00 | 0.02 | 0.02 | 37 | 1012.6 |
| 20260905234012 | 76 | 316 | 3.0 | 8.0 | 0.00 | 0.02 | 0.02 | 38 | 1012.7 |
| 20260905233512 | 76 | 301 | 2.0 | 4.0 | 0.00 | 0.02 | 0.02 | 39 | 1012.7 |
| 20260905233010 | 77 | 304 | 1.0 | 4.0 | 0.00 | 0.02 | 0.02 | 38 | 1012.7 |
| 20260905232510 | 77 | 283 | 1.0 | 5.0 | 0.00 | 0.02 | 0.02 | 38 | 1012.7 |
| 20260905232011 | 77 | 318 | 2.0 | 5.0 | 0.00 | 0.02 | 0.02 | 38 | 1012.7 |
| 20260905231508 | 77 | 322 | 1.0 | 3.0 | 0.00 | 0.02 | 0.02 | 37 | 1012.8 |
| 20260905231007 | 77 | 140 | 0.0 | 5.0 | 0.00 | 0.02 | 0.02 | 38 | 1012.9 |
| 20260905230508 | 78 | 311 | 2.0 | 5.0 | 0.00 | 0.02 | 0.02 | 36 | 1013.0 |
| 20260905230007 | 78 | 318 | 2.0 | 4.0 | 0.00 | 0.02 | 0.02 | 37 | 1013.0 |
| 20260905225508 | 78 | 321 | 0.0 | 3.0 | 0.00 | 0.02 | 0.02 | 36 | 1013.0 |
| 20260905225005 | 78 | 285 | 1.0 | 4.0 | 0.00 | 0.02 | 0.02 | 37 | 1013.0 |
| 20260905224515 | 77 | 163 | 0.0 | 6.0 | 0.00 | 0.02 | 0.02 | 37 | 1013.1 |
| 20260905224003 | 77 | 304 | 0.0 | 7.0 | 0.00 | 0.02 | 0.02 | 37 | 1013.2 |
| 20260905223502 | 77 | 325 | 2.0 | 7.0 | 0.00 | 0.02 | 0.02 | 37 | 1013.3 |
| 20260905223002 | 77 | 313 | 1.0 | 5.0 | 0.00 | 0.02 | 0.02 | 38 | 1013.2 |
| 20260905222502 | 77 | 153 | 0.0 | 3.0 | 0.00 | 0.02 | 0.02 | 36 | 1013.4 |
| 20260905222059 | 77 | 333 | 0.0 | 2.0 | 0.00 | 0.02 | 0.02 | 35 | 1013.4 |
| 20260905221600 | 77 | 309 | 1.0 | 2.0 | 0.00 | 0.02 | 0.02 | 35 | 1013.5 |
| 20260905221059 | 77 | 142 | 0.0 | 4.0 | 0.00 | 0.02 | 0.02 | 36 | 1013.6 |
| 20260905220558 | 77 | 139 | 1.0 | 4.0 | 0.00 | 0.02 | 0.02 | 36 | 1013.6 |
| 20260905220100 | 77 | 298 | 1.0 | 3.0 | 0.00 | 0.02 | 0.02 | 37 | 1013.6 |
| 20260905215557 | 77 | 323 | 1.0 | 3.0 | 0.00 | 0.07 | 0.02 | 37 | 1013.7 |
| 20260905215054 | 76 | 45 | 0.0 | 4.0 | 0.00 | 0.07 | 0.02 | 40 | 1013.9 |
| 20260905214556 | 75 | 318 | 1.0 | 4.0 | 0.00 | 0.07 | 0.02 | 38 | 1014.0 |
| 20260905214054 | 76 | 203 | 1.0 | 4.0 | 0.00 | 0.07 | 0.02 | 40 | 1014.1 |
| 20260905213552 | 75 | 344 | 1.0 | 4.0 | 0.00 | 0.07 | 0.02 | 41 | 1014.2 |
| 20260905213052 | 74 | 323 | 2.0 | 4.0 | 0.00 | 0.07 | 0.02 | 41 | 1014.2 |
| 20260905212551 | 74 | 318 | 2.0 | 5.0 | 0.00 | 0.07 | 0.02 | 43 | 1014.3 |
| 20260905212051 | 74 | 311 | 0.0 | 5.0 | 0.00 | 0.07 | 0.02 | 43 | 1014.4 |
| 20260905211550 | 73 | 314 | 1.0 | 4.0 | 0.00 | 0.07 | 0.02 | 43 | 1014.4 |
| 20260905211051 | 74 | 319 | 1.0 | 3.0 | 0.00 | 0.07 | 0.02 | 42 | 1014.5 |
| 20260905210550 | 74 | 330 | 0.0 | 3.0 | 0.00 | 0.07 | 0.02 | 43 | 1014.5 |
| 20260905210050 | 74 | 319 | 1.0 | 3.0 | 0.00 | 0.07 | 0.02 | 42 | 1014.6 |
| 20260905205550 | 75 | 122 | 1.0 | 5.0 | 0.00 | 0.07 | 0.02 | 42 | 1014.6 |
| 20260905205049 | 75 | 134 | 1.0 | 5.0 | 0.00 | 0.07 | 0.02 | 42 | 1014.7 |
| 20260905204547 | 74 | 144 | 1.0 | 3.0 | 0.00 | 0.07 | 0.02 | 43 | 1014.7 |
| 20260905204046 | 73 | 156 | 0.0 | 2.0 | 0.00 | 0.07 | 0.02 | 44 | 1014.7 |
| 20260905203548 | 73 | 129 | 0.0 | 2.0 | 0.00 | 0.07 | 0.02 | 45 | 1014.7 |
| 20260905203044 | 72 | 159 | 0.0 | 2.0 | 0.00 | 0.07 | 0.02 | 46 | 1014.8 |
| 20260905202542 | 72 | 142 | 1.0 | 2.0 | 0.00 | 0.07 | 0.02 | 47 | 1014.8 |
| 20260905202042 | 72 | 125 | 0.0 | 2.0 | 0.00 | 0.07 | 0.02 | 49 | 1014.8 |
| 20260905201542 | 72 | 134 | 0.0 | 2.0 | 0.00 | 0.07 | 0.02 | 49 | 1014.9 |
| 20260905201043 | 72 | 146 | 0.0 | 2.0 | 0.00 | 0.07 | 0.02 | 50 | 1014.9 |
| 20260905200540 | 71 | 146 | 0.0 | 3.0 | 0.00 | 0.07 | 0.02 | 49 | 1015.0 |
| 20260905200043 | 71 | 149 | 1.0 | 3.0 | 0.00 | 0.07 | 0.02 | 51 | 1015.1 |
| 20260905195540 | 71 | 148 | 0.0 | 2.0 | 0.00 | 0.11 | 0.02 | 49 | 1015.2 |
| 20260905195037 | 71 | 125 | 0.0 | 2.0 | 0.00 | 0.11 | 0.02 | 51 | 1015.3 |
| 20260905194537 | 71 | 70 | 0.0 | 3.0 | 0.00 | 0.11 | 0.02 | 53 | 1015.4 |
| 20260905194036 | 71 | 146 | 1.0 | 3.0 | 0.00 | 0.11 | 0.02 | 54 | 1015.4 |
| 20260905193535 | 70 | 129 | 1.0 | 3.0 | 0.00 | 0.11 | 0.02 | 56 | 1015.4 |
| 20260905193034 | 69 | 313 | 1.0 | 4.0 | 0.00 | 0.11 | 0.02 | 55 | 1015.5 |
| 20260905192533 | 69 | 309 | 2.0 | 4.0 | 0.00 | 0.11 | 0.02 | 54 | 1015.6 |
| 20260905192033 | 70 | 309 | 1.0 | 5.0 | 0.00 | 0.11 | 0.02 | 56 | 1015.6 |
| 20260905191531 | 69 | 150 | 1.0 | 5.0 | 0.00 | 0.11 | 0.02 | 57 | 1015.6 |
| 20260905191030 | 69 | 138 | 0.0 | 3.0 | 0.00 | 0.11 | 0.02 | 60 | 1015.7 |
| 20260905190532 | 68 | 130 | 0.0 | 3.0 | 0.00 | 0.11 | 0.02 | 61 | 1015.8 |
| 20260905190032 | 67 | 321 | 0.0 | 3.0 | 0.00 | 0.11 | 0.02 | 61 | 1015.8 |
| 20260905185527 | 67 | 353 | 0.0 | 3.0 | 0.00 | 0.12 | 0.02 | 63 | 1015.9 |
| 20260905185025 | 66 | 305 | 0.0 | 4.0 | 0.00 | 0.12 | 0.02 | 63 | 1015.9 |
| 20260905184526 | 66 | 315 | 1.0 | 3.0 | 0.00 | 0.12 | 0.02 | 63 | 1016.0 |
| 20260905184025 | 66 | 306 | 0.0 | 4.0 | 0.00 | 0.12 | 0.02 | 64 | 1016.1 |
| 20260905183524 | 66 | 323 | 0.0 | 2.0 | 0.00 | 0.12 | 0.02 | 64 | 1016.1 |
| 20260905183024 | 66 | 128 | 1.0 | 2.0 | 0.00 | 0.12 | 0.02 | 65 | 1016.1 |
| 20260905182523 | 65 | 141 | 0.0 | 2.0 | 0.00 | 0.12 | 0.02 | 67 | 1016.2 |
| 20260905182020 | 64 | 138 | 0.0 | 2.0 | 0.00 | 0.12 | 0.02 | 68 | 1016.3 |
| 20260905181519 | 64 | 136 | 0.0 | 2.0 | 0.00 | 0.12 | 0.02 | 68 | 1016.3 |
| 20260905181019 | 64 | 323 | 0.0 | 2.0 | 0.00 | 0.12 | 0.02 | 68 | 1016.4 |
| 20260905180517 | 63 | 314 | 0.0 | 4.0 | 0.00 | 0.12 | 0.02 | 69 | 1016.5 |
| 20260905180015 | 62 | 316 | 0.0 | 4.0 | 0.00 | 0.12 | 0.02 | 69 | 1016.5 |
| 20260905175514 | 62 | 352 | 0.0 | 3.0 | 0.00 | 0.12 | 0.02 | 70 | 1016.6 |
| 20260905175015 | 62 | 322 | 1.0 | 4.0 | 0.00 | 0.12 | 0.02 | 70 | 1016.6 |
| 20260905174516 | 61 | 315 | 1.0 | 4.0 | 0.00 | 0.12 | 0.02 | 70 | 1016.6 |
| 20260905174011 | 61 | 316 | 0.0 | 4.0 | 0.00 | 0.12 | 0.02 | 71 | 1016.6 |
| 20260905173510 | 61 | 314 | 1.0 | 4.0 | 0.00 | 0.12 | 0.02 | 71 | 1016.6 |
| 20260905173023 | 60 | 321 | 0.0 | 3.0 | 0.00 | 0.12 | 0.02 | 72 | 1016.6 |
| 20260905172508 | 60 | 318 | 1.0 | 3.0 | 0.00 | 0.12 | 0.02 | 73 | 1016.6 |
| 20260905172007 | 60 | 318 | 0.0 | 3.0 | 0.00 | 0.12 | 0.02 | 73 | 1016.6 |
| 20260905171509 | 59 | 326 | 0.0 | 3.0 | 0.00 | 0.12 | 0.02 | 74 | 1016.6 |
| 20260905171004 | 59 | 1 | 0.0 | 3.0 | 0.00 | 0.12 | 0.02 | 75 | 1016.6 |
| 20260905170504 | 59 | 333 | 1.0 | 3.0 | 0.00 | 0.12 | 0.02 | 75 | 1016.6 |
| 20260905170003 | 59 | 143 | 0.0 | 2.0 | 0.00 | 0.12 | 0.02 | 77 | 1016.6 |
| 20260905165503 | 58 | 296 | 0.0 | 2.0 | 0.00 | 0.12 | 0.02 | 77 | 1016.6 |
| 20260905165104 | 58 | 297 | 0.0 | 2.0 | 0.00 | 0.12 | 0.02 | 77 | 1016.7 |
| 20260905164600 | 58 | 340 | 0.0 | 3.0 | 0.00 | 0.12 | 0.02 | 79 | 1016.7 |
| 20260905164059 | 57 | 330 | 0.0 | 3.0 | 0.00 | 0.12 | 0.02 | 78 | 1016.6 |
| 20260905163600 | 57 | 138 | 0.0 | 2.0 | 0.00 | 0.12 | 0.02 | 80 | 1016.6 |
| 20260905163101 | 57 | 317 | 0.0 | 2.0 | 0.00 | 0.12 | 0.02 | 80 | 1016.6 |
| 20260905162556 | 57 | 318 | 0.0 | 1.0 | 0.00 | 0.12 | 0.02 | 81 | 1016.6 |
| 20260905162056 | 56 | 346 | 0.0 | 1.0 | 0.00 | 0.12 | 0.02 | 82 | 1016.6 |
| 20260905161554 | 56 | 346 | 0.0 | 2.0 | 0.00 | 0.12 | 0.02 | 83 | 1016.6 |
| 20260905161052 | 56 | 146 | 0.0 | 2.0 | 0.00 | 0.12 | 0.02 | 85 | 1016.6 |
| 20260905160551 | 55 | 157 | 0.0 | 1.0 | 0.00 | 0.12 | 0.02 | 85 | 1016.5 |
| 20260905160050 | 55 | 325 | 0.0 | 0.0 | 0.00 | 0.12 | 0.02 | 86 | 1016.6 |
| 20260905155549 | 55 | 322 | 0.0 | 0.0 | 0.00 | 0.12 | 0.02 | 89 | 1016.6 |
| 20260905155047 | 54 | 321 | 0.0 | 0.0 | 0.00 | 0.12 | 0.02 | 89 | 1016.6 |
| 20260905154546 | 54 | 320 | 0.0 | 0.0 | 0.00 | 0.12 | 0.02 | 90 | 1016.6 |
| 20260905154045 | 53 | 321 | 0.0 | 1.0 | 0.00 | 0.12 | 0.02 | 90 | 1016.5 |
| 20260905153543 | 53 | 321 | 0.0 | 1.0 | 0.00 | 0.12 | 0.02 | 91 | 1016.6 |
| 20260905153043 | 53 | 321 | 0.0 | 1.0 | 0.00 | 0.12 | 0.02 | 92 | 1016.5 |
| 20260905152542 | 52 | 320 | 0.0 | 1.0 | 0.00 | 0.12 | 0.02 | 93 | 1016.5 |
| 20260905152042 | 52 | 321 | 0.0 | 0.0 | 0.00 | 0.12 | 0.02 | 94 | 1016.5 |
| 20260905151543 | 51 | 320 | 0.0 | 0.0 | 0.00 | 0.12 | 0.02 | 94 | 1016.5 |
| 20260905151042 | 51 | 320 | 0.0 | 0.0 | 0.00 | 0.12 | 0.02 | 95 | 1016.6 |
| 20260905150541 | 51 | 321 | 0.0 | 0.0 | 0.00 | 0.12 | 0.02 | 95 | 1016.7 |
| 20260905150041 | 50 | 320 | 0.0 | 0.0 | 0.00 | 0.12 | 0.02 | 95 | 1016.6 |
| 20260905145541 | 50 | 320 | 0.0 | 0.0 | 0.00 | 0.12 | 0.02 | 95 | 1016.8 |